EDT,Max TemperatureF,Mean TemperatureF,Min TemperatureF,Max Dew PointF,MeanDew PointF,Min DewpointF,Max Humidity, Mean Humidity, Min Humidity, Max Sea Level PressureIn, Mean Sea Level PressureIn, Min Sea Level PressureIn, Max VisibilityMiles, Mean VisibilityMiles, Min VisibilityMiles, Max Wind SpeedMPH, Mean Wind SpeedMPH, Max Gust SpeedMPH,PrecipitationIn, CloudCover, Events, WindDirDegrees
2013-10-1,73,62,52,62,58,47,87,77,63,29.89,29.84,29.78,10,10,7,23,9,38,0.00,0,,192
2013-10-2,69,57,45,53,47,42,92,66,39,30.10,30.04,29.89,10,10,10,9,4,16,0.00,0,,286
2013-10-3,71,59,47,64,53,40,96,76,50,30.05,29.94,29.90,10,6,1,12,3,18,0.00,6,Rain,133
2013-10-4,67,63,59,64,62,57,97,94,89,30.05,29.97,29.88,10,5,0,9,1,,0.00,8,Fog-Rain,95
2013-10-5,68,63,58,62,59,56,93,88,78,30.05,29.94,29.78,10,9,1,14,8,22,0.00,7,Rain,108
2013-10-6,65,60,55,63,54,43,94,82,57,29.78,29.69,29.65,10,9,2,12,7,18,0.00,5,Rain,217
2013-10-7,62,54,43,51,46,41,93,74,55,30.07,29.79,29.61,10,10,2,15,9,25,0.00,4,Rain,300
2013-10-8,68,54,40,54,46,38,94,75,46,30.18,30.14,30.07,10,10,2,13,3,18,0.00,0,,175
2013-10-9,67,57,46,57,51,45,95,74,57,30.25,30.20,30.15,10,10,1,14,7,24,0.00,0,,169
2013-10-10,69,55,41,53,46,39,93,77,47,30.21,30.16,30.11,10,10,5,9,1,,0.00,0,,265
2013-10-11,72,57,42,48,44,40,93,69,36,30.13,30.08,30.02,10,10,4,10,2,,0.00,0,,149
2013-10-12,75,66,57,60,52,44,90,66,51,30.07,29.99,29.92,10,10,2,24,9,33,0.00,3,Rain,169
2013-10-13,59,52,45,47,43,40,85,66,54,30.40,30.27,30.08,10,10,10,15,8,23,0.00,5,,301
2013-10-14,59,47,35,42,39,34,95,74,39,30.45,30.37,30.26,10,10,10,9,2,,0.00,0,,63
2013-10-15,60,50,41,58,47,38,93,83,62,30.26,29.96,29.71,10,9,4,13,6,18,0.00,4,Rain,143
2013-10-16,59,54,50,56,46,42,91,80,72,29.88,29.77,29.70,10,9,2,15,10,24,0.00,8,Rain,289
2013-10-17,50,44,39,44,40,36,93,77,61,29.88,29.82,29.75,10,10,10,10,2,,0.00,7,,289
2013-10-18,57,49,41,46,42,37,93,71,58,29.82,29.78,29.76,10,10,7,16,5,20,0.00,6,Rain,269
2013-10-19,53,46,40,44,38,31,91,72,44,29.82,29.75,29.69,10,10,4,10,4,24,0.00,6,Rain,295
2013-10-20,49,46,42,47,38,34,92,71,58,29.83,29.76,29.65,10,10,7,12,7,22,0.00,6,Rain,229
2013-10-21,52,45,38,46,34,22,81,66,51,29.82,29.75,29.65,10,10,10,17,13,33,0.00,8,Rain,271
2013-10-22,48,42,36,36,32,24,93,69,55,29.89,29.83,29.76,10,9,2,22,13,34,0.00,7,Rain,307
2013-10-23,46,40,34,34,29,24,92,67,46,29.89,29.87,29.85,10,10,2,15,5,26,0.00,7,Rain-Snow,324
2013-10-24,46,40,34,35,31,25,91,69,51,30.15,30.01,29.89,10,9,2,16,10,22,0.00,7,Rain-Snow,318
2013-10-25,50,44,39,36,30,24,88,60,47,30.26,30.13,29.81,10,10,10,24,8,40,0.00,7,Rain,268
2013-10-26,51,46,42,40,34,27,77,62,54,29.98,29.79,29.64,10,10,7,24,16,41,0.00,8,Rain,299
2013-10-27,51,46,41,37,31,26,62,57,52,29.98,29.93,29.87,10,10,10,20,9,28,0.00,7,,259
2013-10-28,49,42,35,38,29,22,78,63,42,30.45,30.30,29.98,10,10,10,15,10,26,0.00,4,Rain,37
2013-10-29,42,37,32,33,27,24,75,66,53,30.46,30.37,30.20,10,10,10,10,5,,0.00,7,,110
2013-10-30,58,48,37,50,41,33,88,76,51,30.20,30.06,29.82,10,10,7,10,2,,0.00,6,Rain,161
2013-10-31,63,58,53,60,55,51,96,92,86,29.80,29.44,29.06,10,7,1,15,5,22,0.00,8,Rain,182